Location: Mentone
(34.5413°N, 85.5351°W)
Time: 17:07:35
(UTC-05:00)

ADEOS Rocket - Visible Passes

Search period start: 23 April 2014 00:00
Search period end: 03 May 2014 00:00
Orbit: 860 x 1307 km, 98.8° (Epoch: 22 April)

Date Brightness Start Highest point End Pass type
(mag) Time Alt. Az. Time Alt. Az. Time Alt. Az.
23 Apr 3.6 22:16:03 44° NNE 22:16:03 44° NNE 22:20:47 10° N visible
24 Apr 5.3 00:03:00 15° WNW 00:03:00 15° WNW 00:04:46 10° NW visible
24 Apr 4.4 21:26:25 20° ENE 21:26:27 20° ENE 21:30:51 10° NNE visible
24 Apr 4.2 23:13:22 37° NW 23:13:22 37° NW 23:17:27 10° NNW visible
25 Apr 3.5 22:23:44 52° NNE 22:23:44 52° NNE 22:28:46 10° N visible
26 Apr 5.4 00:10:41 13° WNW 00:10:41 13° WNW 00:12:06 10° NW visible
26 Apr 4.3 21:34:05 24° ENE 21:34:09 24° ENE 21:39:06 10° NNE visible
26 Apr 4.3 23:21:02 35° WNW 23:21:02 35° WNW 23:25:15 10° NNW visible
27 Apr 3.3 22:31:24 60° NNE 22:31:24 60° NNE 22:36:45 10° N visible
28 Apr 5.5 00:18:22 11° WNW 00:18:22 11° WNW 00:19:11 10° WNW visible
28 Apr 4.1 21:41:47 29° ENE 21:41:52 29° ENE 21:47:18 10° N visible
28 Apr 4.4 23:28:44 32° WNW 23:28:44 32° WNW 23:33:00 10° NNW visible
29 Apr 5.0 20:52:09 10° ENE 20:53:52 12° ENE 20:55:53 10° NE visible
29 Apr 3.2 22:39:06 66° N 22:39:06 66° N 22:44:41 10° NNW visible
30 Apr 3.8 21:49:28 35° ENE 21:49:36 35° ENE 21:55:26 10° N visible
30 Apr 4.6 23:36:25 28° WNW 23:36:25 28° WNW 23:40:43 10° NW visible
01 May 4.8 20:59:50 13° ENE 21:01:31 14° ENE 21:04:47 10° NNE visible
01 May 3.3 22:46:48 68° NW 22:46:48 68° NW 22:52:37 10° NNW visible
02 May 3.6 21:57:10 41° ENE 21:57:21 41° ENE 22:03:32 10° N visible
02 May 4.7 23:44:07 25° WNW 23:44:07 25° WNW 23:48:23 10° NW visible
